Location: Unspecified
(48.2082°N, 0.0000°E)
Time: 10:42:59
(UTC+00:00)

Altair - Pass Details

Date: 24 June 2019
Orbit: 1501 x 1683 km, 47.2° (Epoch: 16 August)

Event Time Altitude Azimuth Distance (km) Brightness Sun altitude
Rises 19:38:35 0° 235° (SW) 4,686 10.4 2.7°
Reaches altitude 10° 19:41:37 10° 232° (SW) 3,726 9.8 2.3°
Maximum altitude 19:50:53 63° 154° (SSE) 1,743 7.7 1.0°
Drops below altitude 10° 20:00:34 10° 77° (ENE) 3,877 9.3 -0.3°
Sets 20:03:47 0° 74° (ENE) 4,886 9.8 -0.7°
